Home > Weather > Ras al-Khaimah > Past weeks

Flag for United Arab Emirates Past Weather in Ras al-Khaimah, Ras al-Khaimah, United Arab Emirates — Yesterday and Last 2 Weeks

Now
93 °F

Clear.


Feels Like: 103 °F
Forecast: 91 / 100 °F
Wind: 3 mph from East

Location: Ras Al Khaimah International Airport

Current Time: Jul 24, 2016 at 3:13:34 AM

Latest Report: Jul 24, 2016 at 2:00 AM


Visibility: 4 mi

Pressure: 29.39 "Hg

Humidity: 53%

Dew Point: 73 °F

Location of Ras al-KhaimahLocation

Past Weather in Ras al-Khaimah — Graph

°F

Ras al-Khaimah Temperature Yesterday

Maximum temperature yesterday: 111 °F (at 11:00 AM)
Minimum temperature yesterday: 86 °F (at 2:00 AM)
Average temperature yesterday: 98 °F

High & Low Weather Summary for the Past Weeks

 TemperatureHumidityPressure
High117 °F (Jul 10, 2:00 PM)84% (Jul 12, 5:00 AM)29.59 "Hg (Jul 12, 5:00 AM)
Low81 °F (Jul 9, 5:00 AM)6% (Jul 11, 2:00 PM)29.33 "Hg (Jul 11, 5:00 PM)
Average99 °F44%29.45 "Hg
* Reported Jul 9 1:00 AM — Jul 24 1:00 AM, Ras al-Khaimah, Weather by CustomWeather, © 2016

Note: Actual official high and low records may vary slightly from our data, if they occured in-between our weather recording intervals... More about our weather records

Advertising

Ras al-Khaimah Weather History for the Previous 24 Hours

Scroll right to see more
 ConditionsComfort  
Time TempWeatherWind HumidityBarometerVisibility
1:00 AM
Sun, Jul 24
95 °FClear.5 mph50%29.39 "Hg4 mi
12:00 AM97 °FClear.13 mph39%29.39 "Hg4 mi
11:00 PM
Sat, Jul 23
97 °FClear.16 mph60%29.39 "Hg4 mi
10:00 PM97 °FClear.7 mph32%29.36 "Hg5 mi
9:00 PM95 °FClear.3 mph32%29.39 "Hg5 mi
8:00 PM99 °FClear.2 mph31%29.36 "Hg5 mi
7:00 PM102 °FSunny.7 mph24%29.36 "Hg10 mi
6:00 PM106 °FSunny.8 mph19%29.36 "Hg10 mi
5:00 PM106 °FSunny.6 mph19%29.36 "Hg10 mi
4:00 PM106 °FSunny.9 mph22%29.36 "Hg10 mi
3:00 PM106 °FSunny.14 mph26%29.39 "Hg10 mi
2:00 PM106 °FSunny.13 mph26%29.39 "Hg10 mi
1:00 PM106 °FClear.14 mph25%29.39 "Hg5 mi
12:00 PM111 °FSunny.13 mph18%29.39 "Hg10 mi
11:00 AM111 °FSunny.5 mph20%29.42 "Hg10 mi
10:00 AM108 °FSunny.13 mph23%29.42 "Hg10 mi
9:00 AM104 °FSunny.14 mph29%29.42 "Hg10 mi
8:00 AM97 °FSunny.3 mph20%29.42 "Hg10 mi
7:00 AM90 °FSunny.6 mph24%29.42 "Hg10 mi
6:00 AM86 °FSunny.3 mph27%29.39 "Hg10 mi
5:00 AM86 °FClear.5 mph29%29.39 "Hg10 mi
4:00 AM86 °FClear.7 mph46%29.39 "Hg10 mi
3:00 AM86 °FClear.6 mph52%29.39 "Hg10 mi
Weather by CustomWeather, © 2016

See weather overviewHow to use our weather pages